Regional Weather Roundup
Issued by NWS Green Bay, WI

Home | Current Version | Previous Version | Graphics & Text | Print | Product List | Glossary Off
Versions: 1 2 3 4 5 6 7 8 9 10 11 12 13 14 15 16 17 18 19 20 21 22 23 24 25 26 27 28 29 30 31 32 33 34 35 36 37 38 39 40 41 42 43 44 45 46 47 48 49 50

000
ASUS43 KGRB 040700
RWRGRB

NORTH-CENTRAL AND NORTHEAST WISCONSIN REGIONAL WEATHER ROUNDUP
NATIONAL WEATHER SERVICE GREEN BAY WI
200 AM CDT FRI SEP 04 2015

WIZ005-009-010>012-018-019-040800-
NORTH CENTRAL WISCONSIN

CITY           SKY/WX    TMP DP  RH WIND       PRES   REMARKS
IRONWOOD       CLEAR     63  61  94 E3        30.00F
MANITOWISH WTR NOT AVBL
ARBOR VITAE    NOT AVBL
EAGLE RIVER    NOT AVBL
LAND O LAKES   NOT AVBL
RHINELANDER    FOG       58  57  97 E6        30.06F VSB 1/2
PHILLIPS       CLEAR     62  62  98 E3        30.03S
ANTIGO         NOT AVBL
TOMAHAWK       NOT AVBL
MERRILL          N/A     57  57 100 CALM      30.05S FOG
$$

WIZ013-073-040800-
NORTHEAST WISCONSIN

CITY           SKY/WX    TMP DP  RH WIND       PRES   REMARKS
IRON MOUNTAIN  CLEAR     60  58  92 CALM      30.04R
MARINETTE      CLEAR     63  59  88 N5        30.01R
$$

WIZ017-030-035>037-045-040800-
CENTRAL WISCONSIN

CITY           SKY/WX    TMP DP  RH WIND       PRES   REMARKS
MEDFORD        NOT AVBL
WAUSAU         CLEAR     63  62  97 CALM      30.01S FOG
MOSINEE        NOT AVBL
MARSHFIELD     CLOUDY    67  63  87 E7        30.01R
WISC RAPIDS    CLOUDY    67  63  87 E7        30.01S
STEVENS POINT  NOT AVBL
WAUPACA        NOT AVBL
SHAWANO        NOT AVBL
CLINTONVILLE   FOG       63  61  94 N5        30.01S VSB 1
WAUTOMA        NOT AVBL
$$

WIZ038-039-048-051-040800-
FOX VALLEY

CITY           SKY/WX    TMP DP  RH WIND       PRES   REMARKS
NWS GREEN BAY  CLOUDY    68  64  87 N8        30.00R
APPLETON       NOT AVBL
OSHKOSH        CLEAR     64  62  93 NW3       29.99R
FOND DU LAC    FOG       61  61 100 CALM      29.99R VSB 1/4
$$

WIZ022-050-052-040800-
EAST CENTRAL WISCONSIN

CITY           SKY/WX    TMP DP  RH WIND       PRES   REMARKS
EPHRAIM        FAIR      64  64  98 N3        30.00R
STURGEON BAY   CLOUDY    66  63  88 N6        30.02S
MANITOWOC      NOT AVBL
SHEBOYGAN      CLOUDY    64  63  96 NW6       29.98S
$$

LMZ563-521-522-541>543-040800-
LAKESHORE

STATION/POSITION TIME  TEMP    WIND        PRES    VSBY  WAVE
                       AIR SEA DIR/SP/G                  HT/PER
                 (UTC) (F)     (DEG/KT/KT) (MB)    (MI)  (FT/S)
SHEBOYGAN LKSHOR 0600   65     310/  5/  5 1014.8R
KEWAUNEE LKSHORE 0600   66      10/  6/  9 1014.0R
ALGOMA MARINA    0614           50/  6/  9   N/A
NORTHPORT PIER   0600   67      20/  5/  8 1015.6R
N MID LAKE BUOY  0550   68 66   40/ 10/ 12 1014.9R         1/ 4
CHAMBERS ISLAND  0600   65     360/  8/ 10 1015.9R
MENOMINEE LKSHOR 0600   64     340/  7/  8 1014.7R
$$



USA.gov is the U.S. government's official web portal to all federal, state and local government web resources and services.